Location: Blankensee
(53.5126°N, 14.3055°E)
Time: 05:59:35
(UTC+00:00)

Daily predictions for brighter satellites

Satellite Brightness Start Highest point End
(mag) Time Altitude Azimuth Time Altitude Azimuth Time Altitude Azimuth
Landsat 4 4.1 00:00:07 10° N 00:03:51 55° WNW 00:04:39 44° WSW
Spot 1 4.1 00:03:37 36° SE 00:05:14 70° ENE 00:09:18 10° NNW
SJ 16-02 3.8 00:03:08 10° ESE 00:05:17 13° E 00:07:25 10° ENE
SL-16 R/B 2.9 00:01:50 10° NNW 00:07:26 53° NE 00:13:00 10° SE
IRAS Rocket 4.4 00:06:21 22° SSE 00:10:05 71° ENE 00:15:41 10° NNW
Cosmos 1025 Rocket 2.9 00:06:45 10° NNW 00:11:03 75° W 00:12:12 47° S
COSMOS 2487 4.3 00:10:12 18° W 00:11:28 22° NW 00:14:16 10° N
CZ-4 R/B 4.1 00:07:25 10° N 00:12:21 66° WNW 00:14:24 35° SW
NOSS 0 Rocket 4.1 00:07:11 10° NW 00:13:14 53° WSW 00:15:55 32° S
CZ-2D R/B 3.2 00:08:20 10° NNE 00:13:28 38° E 00:16:30 21° SSE
Cosmos 1777 Rocket 4.5 00:12:23 32° SSE 00:14:31 51° ESE 00:19:39 10° NE
COSMOS 2428 3.6 00:10:33 10° NW 00:15:34 32° WSW 00:16:51 29° SW
GEOS 3 Rocket 4.1 00:10:41 10° NE 00:15:56 49° SE 00:18:02 33° S
Meteor 1-29 2.9 00:12:43 10° NNE 00:16:12 81° ESE 00:16:43 62° S
ADEOS II 4.2 00:12:37 10° NE 00:16:19 19° E 00:20:00 10° SE
Cosmos 2360 Rocket 4.3 00:15:05 10° WNW 00:16:46 11° W 00:17:41 11° WSW
Meteor 2-5 Rocket 4.4 00:13:16 10° N 00:18:51 52° ENE 00:23:33 14° SE
Lacrosse 4 Rocket 2.1 00:17:22 27° WSW 00:19:21 48° NW 00:23:26 10° NNE
Cosmos 1503 Rocket 4.4 00:21:17 29° SW 00:23:57 60° WNW 00:29:18 10° NNE
Cosmos 2026 Rocket 3.9 00:20:02 10° N 00:26:09 89° E 00:29:55 25° S
Cosmos 1536 Rocket 3.5 00:22:31 10° NNW 00:26:51 66° W 00:28:12 41° SSW
KORONAS-FOTON 3.9 00:24:13 10° N 00:28:01 68° ENE 00:29:28 35° SSE
Cosmos 923 Rocket 4.3 00:23:55 10° NNW 00:29:17 67° ENE 00:34:25 11° SE
Cosmos 1627 Rocket 4.4 00:24:31 10° NNW 00:30:42 83° W 00:34:24 26° S
Cosmos 1980 3.9 00:26:54 10° NW 00:32:23 50° WSW 00:34:49 31° S
Cosmos 2297 Rocket 2.6 00:30:52 28° S 00:33:35 51° ESE 00:39:04 10° NE
Cosmos 2333 Rocket 3.7 00:30:41 10° NW 00:34:45 20° W 00:35:43 19° WSW
Cosmos 1634 Rocket 4.1 00:31:20 26° S 00:35:00 75° E 00:41:14 10° NNE
Cosmos 2219 3.4 00:32:41 30° S 00:35:22 60° ESE 00:40:55 10° NE
Cosmos 1626 3.2 00:35:58 10° N 00:39:31 41° ENE 00:42:03 17° SE
ERBS 3.4 00:36:40 10° WNW 00:38:34 29° W 00:38:34 29° W
MOZ.5/SAFIR/RUBIN 5/SL-8 3.9 00:38:19 34° S 00:40:17 61° WSW 00:45:01 10° NNW
Cosmos 2237 Rocket 2.5 00:36:46 10° NW 00:42:09 46° WSW 00:44:32 29° SSW
Cosmos 1766 4.1 00:41:49 25° SSE 00:43:37 42° E 00:47:19 10° NNE
Cosmos 1437 4.0 00:41:50 10° NW 00:43:59 25° W 00:43:59 25° W
Helios 1B rocket 3.5 00:48:05 10° N 00:51:47 33° WNW 00:53:28 24° WSW
Cosmos 1607 3.9 00:49:26 10° NW 00:55:52 73° SW 01:02:18 10° SSE
Cosmos 1538 Rocket 4.5 00:53:06 10° NW 00:57:56 40° WSW 00:59:58 28° SSW
CZ-4C R/B 3.2 01:00:00 39° SSW 01:00:55 53° WSW 01:04:25 10° NNW
ATLAS 3B R/B 3.5 00:55:32 10° W 01:01:53 47° NNW 01:08:24 10° NE
USA 215 4.2 00:57:08 10° ENE 01:03:00 34° SE 01:06:48 19° S
Cosmos 1707 4.5 01:00:52 10° NW 01:03:38 19° W 01:04:13 18° W
SL-16 R/B 2.7 00:59:59 22° S 01:04:00 57° WSW 01:10:12 10° NNW
COBE Rocket 3.8 01:00:26 16° SSE 01:04:08 80° ENE 01:08:49 10° NNW
Okean 2 Rocket 4.1 01:02:15 24° WSW 01:04:13 35° WNW 01:08:23 10° N
TIMED 4.4 01:05:19 10° NNW 01:09:44 85° WSW 01:13:46 12° SSE
Resurs 1-4 Rocket 2.1 01:05:47 10° NNE 01:11:06 83° WNW 01:14:25 24° SSW
FALCON 9 DEB 3.2 01:08:42 12° W 01:11:51 52° SSW 01:15:14 10° ESE
Cosmos 1943 4.4 01:07:51 10° NNW 01:13:17 45° NE 01:18:39 10° ESE
Okean 1-7 Rocket 3.9 01:09:50 10° N 01:14:15 66° ENE 01:18:34 10° SSE
Cosmos 1805 3.2 01:13:32 30° SSW 01:15:21 76° WNW 01:19:17 10° N
Cosmos 2266 Rocket 4.2 01:09:55 10° N 01:16:20 74° ENE 01:22:37 10° SSE
SL-14 R/B 3.2 01:12:45 10° NNW 01:16:43 88° W 01:19:22 20° S
BREEZE-M R/B 4.2 01:19:05 16° SE 01:19:05 16° SE 01:19:49 10° ESE
Cosmos 1674 3.6 01:17:15 10° NNW 01:20:36 31° W 01:21:38 26° WSW
Okean 1 Rocket 3.2 01:18:56 26° SSW 01:21:13 61° WNW 01:25:33 10° N
Uosat 12 SS-18 rocket 4.1 01:18:27 25° SW 01:21:20 84° SE 01:25:45 10° NE
Meteor 1-15 Rocket 4.3 01:17:58 23° SSW 01:21:33 65° WNW 01:27:09 10° N
Cosmos 1655 Rocket 4.0 01:15:42 10° NNW 01:22:01 83° W 01:28:01 11° S
Cosmos 2227 Rocket 2.2 01:19:04 23° SSW 01:22:46 89° NW 01:28:29 10° NNE
Cosmos 2112 Rocket 3.9 01:18:14 10° NNW 01:23:29 75° WSW 01:28:40 10° SSE
AQUA 3.8 01:20:45 10° NNE 01:25:33 87° WNW 01:28:45 21° SSW
Cosmos 1733 3.1 01:27:32 25° SSW 01:29:37 75° WNW 01:33:29 10° N
CBERS-1 4.2 01:25:02 10° NNE 01:30:10 72° ESE 01:34:17 16° S
ARIANE 5 R/B 3.5 01:32:05 10° NNE 01:37:05 44° E 01:42:03 10° S
Cosmos 1758 4.2 01:34:06 11° SSE 01:37:48 45° E 01:41:39 10° NNE
NOSS 3-1 (C) 4.3 01:33:35 14° S 01:37:52 38° ESE 01:43:44 10° NE
USA 267 3.2 01:31:37 10° SE 01:38:09 73° SSW 01:44:44 10° WNW
CENTAUR R/B 4.3 01:33:18 10° WNW 01:39:51 39° N 01:47:24 10° ENE
Cosmos 1898 Rocket 4.0 01:35:45 14° S 01:40:04 55° ESE 01:45:10 10° NNE
Cosmos 1680 Rocket 3.7 01:35:50 10° NW 01:40:53 49° WSW 01:45:53 10° S
ERS-2 4.4 01:39:39 10° ESE 01:42:46 27° ENE 01:45:56 10° N
SJ 16-02 1.3 01:40:06 20° SSW 01:43:10 89° ESE 01:47:36 10° NNE
Cosmos 2082 3.7 01:39:45 18° SSW 01:44:00 81° ESE 01:49:40 10° NNE
Cosmos 1726 3.8 01:42:46 10° SSE 01:46:03 31° E 01:49:19 10° NNE
IDEFIX/ARIANE 42P 3.9 01:41:37 10° NNE 01:46:26 36° E 01:51:13 10° SSE
Cosmos 990 Rocket 4.2 01:44:13 15° SSW 01:48:31 68° ESE 01:53:40 10° NNE
SL-16 R/B 2.8 01:46:15 10° NW 01:51:25 37° WSW 01:56:34 10° S
Cosmos 724 4.3 01:45:38 10° NW 01:51:37 77° SW 01:57:42 10° SSE
Cosmos 1626 Rocket 3.7 01:47:37 10° N 01:51:58 73° ENE 01:56:17 10° SSE
Cosmos 1340 Rocket 3.2 01:48:30 12° S 01:52:05 62° E 01:56:01 10° NNE
CZ-2D R/B 2.8 01:48:24 10° N 01:53:35 45° WNW 01:57:48 15° SW
SL-4 R/B 3.0 01:54:33 18° SSW 01:54:33 18° SSW 01:56:28 10° SSE
GEOS 3 Rocket 4.2 01:48:46 10° NE 01:54:03 55° NW 01:59:07 11° WSW
IRS-1D 3.5 01:49:08 10° NNE 01:54:10 75° WNW 01:58:31 14° SSW
Meteor 1-24 Rocket 4.1 01:49:12 10° NNW 01:54:22 43° W 01:58:47 13° SSW
NPP 4.1 01:49:53 10° N 01:55:04 49° WNW 01:59:17 15° SW
Cosmos 1455 Rocket 3.1 01:51:23 14° SSW 01:55:07 86° WNW 01:59:36 10° N
SL-08 R/B 3.4 01:50:52 10° S 01:55:49 72° WSW 02:00:48 10° NNW
Cosmos 1461 3.5 01:52:47 16° SSW 01:56:07 54° SE 02:00:36 10° NE
ADEOS II 2.1 01:51:24 10° NNE 01:56:41 82° WNW 02:01:26 13° SSW
Lacrosse 4 Rocket 3.9 01:56:18 10° WNW 01:58:58 16° NNW 02:01:37 10° NNE
CZ-2D R/B 4.4 01:55:38 10° NNE 01:59:33 42° E 02:03:21 10° S
Cosmos 1892 Rocket 4.2 01:55:24 10° NNW 01:59:35 39° W 02:03:00 14° SSW
Cosmos 1953 3.5 01:56:08 10° SSE 01:59:55 41° E 02:03:46 10° NNE
CZ-4B R/B 3.5 01:55:15 10° N 01:59:58 60° WNW 02:03:51 15° SW
Meteor 2-21 4.4 02:01:36 10° NNW 02:07:41 86° W 02:13:45 10° S
IRS-1C 4.2 02:05:38 10° NNE 02:11:01 86° WNW 02:16:22 10° SSW
USA 229 DEB 4.1 02:05:21 11° SSW 02:11:29 55° SE 02:18:13 10° NE
USA 229 4.1 02:05:27 11° SSW 02:11:34 55° SE 02:18:16 10° NE
Cosmos 2263 Rocket 3.2 02:09:06 10° S 02:14:18 42° ESE 02:19:32 10° NE
Cosmos 1626 3.6 02:11:44 10° NW 02:14:32 20° W 02:16:34 14° SW
Cosmos 2297 Rocket 3.1 02:12:41 11° WSW 02:17:50 40° NW 02:23:10 10° NNE
Cosmos 2098 Rocket 4.0 02:14:14 10° NNW 02:18:36 40° W 02:23:59 10° SSW
Cosmos 2219 4.2 02:14:43 10° WSW 02:19:52 35° NW 02:25:02 10° NNE
NOSS 3-1 (A) 4.1 02:17:21 10° SSW 02:22:38 46° ESE 02:28:49 10° NE
Cosmos 1703 3.9 02:18:57 10° N 02:22:55 61° ENE 02:26:51 10° SSE
Meteor 1-28 Rocket 3.8 02:21:14 10° SSW 02:24:47 38° W 02:28:23 10° NNW
Cosmos 1603 3.8 02:25:39 10° NW 02:31:18 58° WSW 02:36:53 10° SSE
H-2A R/B 1.9 02:27:28 10° SSE 02:31:35 81° WSW 02:35:43 10° NNW
Cosmos 1825 Rocket 4.2 02:28:16 10° N 02:32:37 61° ENE 02:36:53 10° SSE
Timation 1 Rocket 4.5 02:27:17 10° SSW 02:33:14 79° ESE 02:39:14 10° NE
Cosmos 1470 3.5 02:32:07 10° SW 02:35:52 39° WNW 02:39:40 10° N
SeaSat 1 3.8 02:32:43 10° NE 02:37:18 36° ESE 02:41:50 10° S
Cosmos 1544 Rocket 4.1 02:37:36 10° SW 02:41:53 45° WNW 02:46:13 10° N
Spot 4 Rocket 4.1 02:37:38 10° NNE 02:42:50 83° WNW 02:48:00 10° SSW
USA 215 3.4 02:40:03 10° ENE 02:46:39 80° SSE 02:53:13 10° WSW
SL-16 R/B 4.3 02:46:48 10° WSW 02:49:01 12° W 02:51:15 10° WNW
Resurs 1-4 Rocket 3.9 02:46:37 10° N 02:50:15 19° NW 02:53:50 10° W
Cosmos 1048 Rocket 3.9 02:46:45 10° NNW 02:51:54 76° WSW 02:57:03 10° SSE
